Back to catalog

STARLINK-34724

AliveCommunicationsVLEO
NORAD 66442·PAYLOAD·🇺🇸 United States

Launched Nov 11, 2025 from Cape Canaveral Space Force Station

Loading…

Next Passes (next 24 hours)

TLE

FreshSource: CelesTrak SupGP

Epoch: Sep 14, 2026, 21:30 UTC

1 66442C 25259W   26257.89631944  .00009307  00000+0  33716-3 0  2579
2 66442  43.0001 286.2455 0001448 266.4421  66.3924 15.27568431    19

Track STARLINK-34724 in real time with AllMySat

Download on the App Store